Location: Dehesa de la Cepeda
(40.6574°N, 4.3013°W)
Time: 02:36:54
(UTC+00:00)

Courier 1B - Pass Details

Date: 05 August 2021
Orbit: 963 x 1209 km, 28.3° (Epoch: 17 September)

Event Time Altitude Azimuth Distance (km) Brightness Sun altitude
Rises 20:42:13 0° 258° (WSW) 4,107 11.4 -13.1°
Reaches altitude 10° 20:45:30 10° 247° (WSW) 3,141 10.6 -13.6°
Maximum altitude 20:51:59 29° 191° (SSW) 2,034 8.9 -14.6°
Enters shadow 20:56:01 19° 148° (SSE) 2,502 9.1 -15.2°
Drops below altitude 10° 20:58:19 10° 135° (SE) 3,068 - -15.5°
Sets 21:01:30 0° 125° (SE) 3,995 - -16.0°
